Weather History for Franklin, PA

Change the Weather History Date:

Wednesday, March 13, 2013

  Actual Average Record
Temperature  
Mean Temperature 28 °F -  
Max Temperature 32 °F 44 °F 78 °F (1990)
Min Temperature 24 °F 23 °F -9 °F (1984)
Degree Days  
Heating Degree Days 37    
Moisture  
Dew Point 21 °F    
Average Humidity 76    
Maximum Humidity 93    
Minimum Humidity 55    
Precipitation  
Precipitation 0.00 in - - ()
Sea Level Pressure  
Sea Level Pressure 29.92 in    
Wind  
Wind Speed 9 mph (WSW)    
Max Wind Speed 21 mph    
Max Gust Speed 34 mph    
Visibility 8 miles    
Events      
Averages and records for this station are not official NWS values.
T = Trace of Precipitation, MM = Missing Value Source: NWS Daily Summary

Daily Weather History Graph

Daily Weather History Graph

Search for Another Location

Airport:

Trip Planner

Search our weather history database for the weather conditions in past years. The results will help you decide how hot, cold, wet, or windy it might be!

Date:

Astronomy

Mar. 13, 2013 Rise Set
Actual Time 7:34 AM EDT 7:24 PM EDT
Civil Twilight 7:06 AM EDT 7:51 PM EDT
Nautical Twilight 6:34 AM EDT 8:23 PM EDT
Astronomical Twilight 6:02 AM EDT 8:56 PM EDT
Moon 8:11 AM EDT (3/13) 9:41 PM EDT (3/13)
Length of Visible Light 12h 45m
Length of Day
11h 50m
Waxing Crescent, 4% of the Moon is Illuminated
Mar 13
Waxing Crescent
Mar 19
First Quarter
Mar 27
Full
Apr 3
Last Quarter
Apr 10
New

Hourly Weather History & Observations

Time (EDT) Temp. Windchill Dew Point Humidity Pressure Visibility Wind Dir Wind Speed Gust Speed Precip Events Conditions
12:15 AM 32.0 °F 25.6 °F 21.2 °F 64% 29.93 in 10.0 mi WSW 6.9 mph - N/A   Overcast
12:35 AM 32.0 °F 24.2 °F 21.2 °F 64% 29.93 in 10.0 mi WSW 9.2 mph - N/A   Overcast
12:55 AM 32.0 °F 25.6 °F 21.2 °F 64% 29.92 in 10.0 mi SW 6.9 mph - N/A   Overcast
1:55 AM 28.4 °F 24.6 °F 21.2 °F 74% 29.91 in 10.0 mi SSW 3.5 mph - N/A   Mostly Cloudy
2:15 AM 28.4 °F 22.2 °F 21.2 °F 74% 29.91 in 10.0 mi SSW 5.8 mph - N/A   Overcast
2:35 AM 30.2 °F 25.4 °F 21.2 °F 69% 29.91 in 10.0 mi SSW 4.6 mph - N/A   Overcast
2:55 AM 30.2 °F 26.7 °F 21.2 °F 69% 29.90 in 10.0 mi SSW 3.5 mph - N/A   Overcast
3:15 AM 30.2 °F 25.4 °F 21.2 °F 69% 29.90 in 10.0 mi SSW 4.6 mph - N/A   Overcast
3:35 AM 30.2 °F 25.4 °F 23.0 °F 75% 29.89 in 9.0 mi SSW 4.6 mph - N/A   Mostly Cloudy
3:55 AM 28.4 °F 21.2 °F 23.0 °F 80% 29.87 in 10.0 mi SSW 6.9 mph - N/A   Scattered Clouds
4:15 AM 28.4 °F 20.4 °F 23.0 °F 80% 29.86 in 10.0 mi South 8.1 mph - N/A   Partly Cloudy
4:55 AM 30.2 °F 22.6 °F 24.8 °F 80% 29.86 in 10.0 mi SSW 8.1 mph - N/A   Mostly Cloudy
5:15 AM 28.4 °F 22.2 °F 24.8 °F 86% 29.86 in 10.0 mi SSW 5.8 mph - N/A   Overcast
5:35 AM 28.4 °F 21.2 °F 24.8 °F 86% 29.86 in 10.0 mi SW 6.9 mph - N/A   Scattered Clouds
5:55 AM 28.4 °F 22.2 °F 24.8 °F 86% 29.86 in 10.0 mi SW 5.8 mph - N/A   Mostly Cloudy
6:15 AM 28.4 °F 22.2 °F 24.8 °F 86% 29.86 in 9.0 mi SW 5.8 mph - N/A   Overcast
6:35 AM 28.4 °F 21.2 °F 24.8 °F 86% 29.86 in 9.0 mi SW 6.9 mph - N/A   Overcast
6:55 AM 28.4 °F 21.2 °F 24.8 °F 86% 29.86 in 3.0 mi SW 6.9 mph - N/A   Overcast
7:15 AM 28.4 °F 22.2 °F 26.6 °F 93% 29.86 in 2.0 mi SSW 5.8 mph - N/A   Overcast
7:35 AM 28.4 °F 20.4 °F 26.6 °F 93% 29.86 in 3.0 mi WSW 8.1 mph - N/A   Overcast
7:55 AM 28.4 °F 21.2 °F 26.6 °F 93% 29.86 in 6.0 mi WSW 6.9 mph - N/A   Overcast
8:15 AM 28.4 °F 21.2 °F 24.8 °F 86% 29.86 in 10.0 mi WSW 6.9 mph - N/A   Overcast
8:35 AM 30.2 °F 20.8 °F 24.8 °F 80% 29.87 in 10.0 mi WSW 11.5 mph - N/A   Overcast
8:55 AM 30.2 °F 21.9 °F 24.8 °F 80% 29.87 in 10.0 mi WSW 9.2 mph - N/A   Overcast
9:15 AM 30.2 °F 21.9 °F 23.0 °F 75% 29.87 in 10.0 mi WSW 9.2 mph - N/A   Overcast
9:35 AM 30.2 °F 21.9 °F 23.0 °F 75% 29.87 in 10.0 mi WSW 9.2 mph 18.4 mph N/A   Overcast
9:55 AM 30.2 °F 22.6 °F 23.0 °F 75% 29.87 in 9.0 mi WSW 8.1 mph 17.3 mph N/A   Mostly Cloudy
10:15 AM 30.2 °F 21.3 °F 23.0 °F 75% 29.87 in 10.0 mi WSW 10.4 mph - N/A   Overcast
10:35 AM 30.2 °F 19.8 °F 24.8 °F 80% 29.88 in 7.0 mi SW 13.8 mph 17.3 mph N/A   Overcast
10:55 AM 28.4 °F 19.7 °F 23.0 °F 80% 29.88 in 0.2 mi WSW 9.2 mph 34.5 mph N/A   Overcast
11:15 AM 28.4 °F 19.7 °F 23.0 °F 80% 29.89 in 10.0 mi WSW 9.2 mph 17.3 mph N/A   Mostly Cloudy
11:35 AM 30.2 °F 21.3 °F 23.0 °F 75% 29.88 in 10.0 mi West 10.4 mph 17.3 mph N/A   Overcast
11:55 AM 32.0 °F 24.2 °F 21.2 °F 64% 29.88 in 10.0 mi West 9.2 mph 17.3 mph N/A   Overcast
12:15 PM 32.0 °F 21.6 °F 21.2 °F 64% 29.89 in 10.0 mi West 15.0 mph 19.6 mph N/A   Mostly Cloudy
12:35 PM 32.0 °F 23.0 °F 21.2 °F 64% 29.89 in 10.0 mi West 11.5 mph 21.9 mph N/A   Overcast
12:55 PM 30.2 °F 19.8 °F 21.2 °F 69% 29.90 in 10.0 mi West 13.8 mph 25.3 mph N/A   Overcast
1:15 PM 30.2 °F 20.8 °F 19.4 °F 64% 29.90 in 10.0 mi WNW 11.5 mph 23.0 mph N/A   Overcast
1:35 PM 30.2 °F 19.8 °F 19.4 °F 64% 29.91 in 10.0 mi WSW 13.8 mph 17.3 mph N/A   Overcast
1:55 PM 30.2 °F 19.3 °F 19.4 °F 64% 29.91 in 10.0 mi WNW 15.0 mph 19.6 mph N/A   Mostly Cloudy
2:15 PM 28.4 °F 19.7 °F 21.2 °F 74% 29.91 in 3.0 mi WNW 9.2 mph - N/A   Mostly Cloudy
2:35 PM 30.2 °F 20.2 °F 24.8 °F 80% 29.90 in 9.0 mi WSW 12.7 mph 18.4 mph N/A   Overcast
2:55 PM 28.4 °F 17.0 °F 19.4 °F 69% 29.91 in 3.0 mi WNW 15.0 mph 25.3 mph N/A   Overcast
3:15 PM 28.4 °F 19.1 °F 24.8 °F 86% 29.91 in 1.2 mi West 10.4 mph 16.1 mph N/A   Overcast
3:35 PM 28.4 °F 18.0 °F 21.2 °F 74% 29.91 in 5.0 mi West 12.7 mph 25.3 mph N/A   Overcast
3:55 PM 28.4 °F 16.2 °F 21.2 °F 74% 29.92 in 3.0 mi West 17.3 mph 26.5 mph N/A   Overcast
4:15 PM 28.4 °F 15.8 °F 17.6 °F 64% 29.93 in 10.0 mi West 18.4 mph 25.3 mph N/A   Overcast
4:35 PM 28.4 °F 17.0 °F 15.8 °F 59% 29.93 in 10.0 mi West 15.0 mph 29.9 mph N/A   Overcast
4:55 PM 28.4 °F 18.5 °F 14.0 °F 55% 29.94 in 10.0 mi West 11.5 mph 28.8 mph N/A   Overcast
5:15 PM 28.4 °F 15.4 °F 15.8 °F 59% 29.95 in 10.0 mi West 19.6 mph 29.9 mph N/A   Overcast
5:35 PM 26.6 °F 15.7 °F 15.8 °F 64% 29.96 in 9.0 mi West 12.7 mph 24.2 mph N/A   Mostly Cloudy
5:55 PM 26.6 °F 14.7 °F 15.8 °F 64% 29.96 in 10.0 mi West 15.0 mph 24.2 mph N/A   Overcast
6:15 PM 26.6 °F 16.2 °F 17.6 °F 69% 29.97 in 8.0 mi West 11.5 mph 25.3 mph N/A   Overcast
6:35 PM 26.6 °F 12.7 °F 17.6 °F 69% 29.98 in 6.0 mi WNW 20.7 mph 27.6 mph N/A   Overcast
6:55 PM 24.8 °F 15.3 °F 17.6 °F 74% 29.98 in 6.0 mi WNW 9.2 mph 18.4 mph N/A   Overcast
7:15 PM 24.8 °F 14.6 °F 19.4 °F 80% 29.99 in 1.0 mi West 10.4 mph 21.9 mph N/A   Overcast
7:35 PM 24.8 °F 12.4 °F 19.4 °F 80% 29.99 in 4.0 mi West 15.0 mph - N/A   Overcast
7:55 PM 24.8 °F 11.9 °F 17.6 °F 74% 29.99 in 10.0 mi WSW 16.1 mph 20.7 mph N/A   Overcast
8:15 PM 24.8 °F 12.4 °F 19.4 °F 80% 30.00 in 5.0 mi West 15.0 mph 19.6 mph N/A   Overcast
8:35 PM 24.8 °F 13.4 °F 19.4 °F 80% 30.01 in 3.0 mi West 12.7 mph 21.9 mph N/A   Overcast
8:55 PM 24.8 °F 11.9 °F 19.4 °F 80% 30.01 in 5.0 mi West 16.1 mph 21.9 mph N/A   Overcast
9:15 PM 24.8 °F 16.9 °F 19.4 °F 80% 30.01 in 2.0 mi West 6.9 mph - N/A   Overcast
9:35 PM 24.8 °F 16.9 °F 21.2 °F 86% 30.02 in 1.2 mi WNW 6.9 mph - N/A   Overcast
9:55 PM 24.8 °F 14.6 °F 19.4 °F 80% 30.02 in 7.0 mi West 10.4 mph - N/A   Overcast
10:15 PM 24.8 °F 14.0 °F 19.4 °F 80% 30.02 in 7.0 mi West 11.5 mph 17.3 mph N/A   Overcast
10:35 PM 24.8 °F 14.6 °F 21.2 °F 86% 30.03 in 2.0 mi West 10.4 mph - N/A   Overcast
10:55 PM 24.8 °F 13.4 °F 19.4 °F 80% 30.03 in 8.0 mi West 12.7 mph 16.1 mph N/A   Mostly Cloudy
11:15 PM 24.8 °F 14.0 °F 19.4 °F 80% 30.02 in 10.0 mi WSW 11.5 mph - N/A   Mostly Cloudy
11:35 PM 24.8 °F 13.4 °F 19.4 °F 80% 30.02 in 10.0 mi WSW 12.7 mph 17.3 mph N/A   Mostly Cloudy
11:55 PM 24.8 °F 12.9 °F 19.4 °F 80% 30.02 in 9.0 mi WSW 13.8 mph 20.7 mph N/A   Overcast